Погода в Исмаиллах

Азербайджан     40°47′31″N   48°09′58″E
темп.,
°C
ветер,
м/с
пор.,
м/с
влажн.,
%
обл.,
%
осадки,
мм/ч
давл.,
гПа
погр.,
м
30 ноября, вт
вт3001:00+9с226765 0.0 101712
04:00+9с33565 0.0 101517
07:00+10с334319 0.0 101317
10:00+13ссз3335100 0.0 101247
13:00+19зсз392987 0.0 1009462
16:00+18сз393897 0.0 1008262
19:00+15с323756 0.0 100614
22:00+13св22422 0.0 100611
1 декабря, ср
ср101:00+12ссв32479 0.0 100412
04:00+12с22441 0.0 100212
07:00+12с32430 0.0 100112
10:00+15сз23400 0.0 1001149
13:00+18з37332 0.0 1000706
16:00+15юз224531 0.0 1000194
19:00+10всв227842 0.4 100336
22:00+8юз1185100 1.1 100542
2 декабря, чт
чт201:00+6зюз1194100 3.1 1008227
04:00+4в2594100 12.4 1011586
07:00+4ююв1492100 2.0 1013636
10:00+4ю229193 2.7 1016324
13:00+3ю2291100 0.6 1019379
16:00+4юв128385 0.9 1021363
19:00+3в229031 0.3 102449
22:00+3ссв018739 0.5 102671
3 декабря, пт
пт301:00+3сз238342 0.0 1026273
04:00+1с32745 0.0 102729
07:00+1ссз22725 0.0 102718
10:00+4зсз24652 0.0 1027330
13:00+6з34560 0.0 1025638
16:00+5зюз236488 0.0 1024513
19:00+2с118272 0.0 102613
22:00+2с217095 0.0 102512
4 декабря, сб
сб401:00+2с226148 0.0 102413
04:00+1с22570 0.0 102312
07:00+1ссз22576 0.0 102211
10:00+4з124971 0.0 1021168
13:00+7зюз234813 0.0 1019475
16:00+6юз22560 0.0 1018321
19:00+3св11690 0.0 101911
22:00+3с22600 0.0 101812